[[{"header":{"parameterUnit":"m.s-1","parameterCategory":1,"la1":30.2991,"la2":30.254,"lo1":-89.0895,"lo2":-89.0444,"dy":0.0017,"dx":0.0017,"nx":28,"ny":28,"refTime":"2025-06-20T03:00:00:Z","depth":0,"parameterNumber":2,"parameterNumberName":"U-component_of_WINDS"},"data":[0,0,0,0,0,0,0,0,0,0,0,0,0,0,0,0,0,0,0,0,0,0,0,0,0,0,0,0,0,0,0,0,0,0,0,0,0,0,0,0,0,0,0,0,0,0,0,0,0,0,0,0,0,0,0,0,0,0,1.4761,1.4761,0,1.4793,1.4793,1.4793,1.48,1.4799,1.4799,1.4799,1.4832,1.4833,1.4834,0,0,0,0,0,0,0,0,0,0,0,0,0,1.4707,1.4708,1.4761,1.4761,1.4762,1.4793,1.4793,1.4793,1.48,1.4799,1.4799,1.4799,1.4832,1.4833,1.4834,0,0,0,0,0,0,0,0,0,0,0,0,0,1.4734,1.4709,1.4761,1.4768,1.4769,1.4792,1.4793,1.4794,1.48,1.4799,1.4799,1.4799,1.4831,1.4833,1.4835,1.4852,0,0,1.484,1.484,0,0,0,0,0,0,0,0,1.4733,1.4736,1.4767,1.4768,1.4769,1.4792,1.4786,1.4813,1.48,1.4788,1.4799,1.4799,1.4819,1.4822,1.4828,1.4854,1.4855,1.484,1.4841,1.4842,1.4842,0,0,0,0,0,0,0,1.4731,1.4735,1.4773,1.4767,1.4769,1.4771,1.4774,1.4791,1.4805,1.4789,1.479,1.4793,1.482,1.4827,1.4829,1.4856,1.484,1.4841,1.4842,1.4843,1.4899,1.49,0,0,0,0,0,0,1.4727,1.4733,1.4772,1.4774,1.475,1.4772,1.4776,1.4785,1.4805,1.4808,1.4794,1.4794,1.4824,1.4827,1.4831,1.4853,1.4842,1.4843,1.4844,1.4899,1.4899,1.49,0,0,0,0,0,0,1.4726,1.4731,1.4771,1.4754,1.4759,1.4774,1.4783,1.4786,1.4793,1.4809,1.4811,1.4798,1.4824,1.4828,1.4847,1.4855,1.4844,1.4845,1.4898,1.4899,1.49,1.4899,0,0,0,0,0,0,1.4725,1.473,1.4736,1.4754,1.476,1.4786,1.4784,1.4787,1.4796,1.4796,1.4814,1.4816,1.4824,1.4845,1.4849,1.4857,1.4847,1.4897,1.4898,1.4899,1.4898,1.4899,1.49,0,0,0,0,0,1.4723,1.4735,1.4737,1.4741,1.4768,1.4787,1.479,1.4799,1.4796,1.4803,1.4814,1.4816,1.4853,1.4847,1.4851,1.486,1.4897,1.4898,1.4899,1.4898,1.4899,1.49,0,0,0,0,0,0,1.4717,1.4737,1.4739,1.4757,1.4771,1.4788,1.4796,1.48,1.4814,1.4814,1.4824,1.4828,1.4847,1.4855,1.4847,1.4879,1.4875,1.4877,1.4872,1.4874,1.4875,1.4872,1.4848,0,0,0,0,0,1.4718,1.4731,1.4748,1.4763,1.4769,1.4782,1.479,1.4796,1.481,1.4815,1.4827,1.4841,1.4856,1.4865,1.488,1.49,1.4904,1.4908,1.4909,1.491,1.4912,1.4924,1.4926,1.4903,1.4903,1.4903,0,0,1.472,1.4733,1.474,1.4762,1.4773,1.4787,1.4786,1.4801,1.4812,1.4818,1.4836,1.4846,1.4862,1.4882,1.4891,1.4889,1.4919,1.4912,1.4912,1.4913,1.4925,1.4927,1.4929,1.4904,1.4904,1.4904,0,0,1.4731,1.4742,1.4755,1.4766,1.4783,1.4792,1.4795,1.4812,1.4819,1.4838,1.4843,1.4857,1.4882,1.4894,1.4903,1.4921,1.4924,1.4925,1.4931,1.4943,1.4944,1.4946,1.4953,1.4955,1.4927,1.4927,1.4927,0,1.4731,1.4752,1.4762,1.4777,1.4786,1.4793,1.4808,1.4818,1.4839,1.4846,1.4844,1.4877,1.4888,1.4911,1.4916,1.4923,1.4928,1.4923,1.4943,1.4945,1.4947,1.4953,1.4956,1.4927,1.4927,1.4927,1.4927,0,1.4752,1.4767,1.4776,1.4796,1.4807,1.4822,1.4834,1.4844,1.485,1.4859,1.4879,1.4894,1.4912,1.4918,1.4923,1.4942,1.4941,1.4941,1.4937,1.4949,1.4955,1.4958,1.4927,1.4927,1.4927,1.4927,0,0,1.4759,1.4785,1.4788,1.4798,1.4818,1.483,1.4846,1.4863,1.4872,1.4887,1.4901,1.4923,1.4924,1.4935,1.4942,1.4952,1.4966,1.4951,1.4952,1.4954,1.4989,1.4988,1.4991,1.4969,1.4969,1.497,1.4988,0,1.4772,1.4799,1.4809,1.4832,1.4847,1.4854,1.4868,1.4882,1.4892,1.4906,1.4917,1.4933,1.4933,1.4939,1.495,1.4962,1.4973,1.4961,1.4982,1.4983,1.4977,1.4994,1.4993,1.501,1.499,1.4991,1.4991,0,1.479,1.4805,1.483,1.4849,1.4856,1.4868,1.4886,1.4899,1.4916,1.4923,1.4936,1.4942,1.496,1.4956,1.4981,1.4972,1.4982,1.4989,1.499,1.4992,1.4987,1.4996,1.5015,1.5017,1.4995,1.4995,1.4994,0,1.4793,1.482,1.4838,1.4846,1.4869,1.4878,1.4888,1.4904,1.4915,1.4931,1.4939,1.4957,1.4967,1.4981,1.4993,1.4989,1.5017,1.5014,1.5023,1.5023,1.5028,1.5027,1.5048,1.5035,1.5035,1.5035,1.5035,0,1.4806,1.4821,1.484,1.4851,1.4868,1.488,1.4897,1.4908,1.4923,1.4937,1.4945,1.4958,1.4973,1.4989,1.4998,1.5018,1.5023,1.5029,1.5031,1.5028,1.5027,1.5033,1.5032,1.5035,1.5035,1.5035,1.5035,0,1.4811,1.4824,1.4845,1.4866,1.4871,1.4883,1.4901,1.4913,1.4924,1.4942,1.4947,1.4964,1.4983,1.4996,1.502,1.5027,1.5048,1.505,1.5042,1.5043,1.5052,1.5051,1.5077,1.5081,1.5065,1.5066,1.5066,0,1.4818,1.483,1.4852,1.4863,1.4873,1.4889,1.49,1.4913,1.4925,1.4946,1.4956,1.4975,1.4991,1.5021,1.5036,1.5055,1.5058,1.5066,1.5061,1.5057,1.5058,1.5057,1.5058,1.5066,1.5066,1.5066,1.5066,0,1.483,1.4836,1.4852,1.4871,1.4884,1.49,1.4915,1.4923,1.4939,1.4952,1.4972,1.4984,1.501,1.5029,1.505,1.5061,1.5067,1.5068,1.5071,1.5068,1.5063,1.5066,1.5044,1.5067,1.5067,1.5067,1.5067,1.5067,1.4836,1.4848,1.4866,1.4883,1.4897,1.4911,1.4924,1.4937,1.4953,1.4975,1.4982,1.5002,1.5021,1.5049,1.5061,1.5078,1.5077,1.5082,1.5083,1.5084,1.5083,1.5061,1.5081,1.5081,1.5081,1.5081,1.5081,0,1.4849,1.4861,1.4877,1.4899,1.4914,1.4918,1.4936,1.4948,1.4966,1.4982,1.4999,1.5022,1.5041,1.5058,1.5079,1.5089,1.5092,1.5094,1.5093,1.5096,1.5083,1.5078,1.5091,1.5091,1.5091,1.5091,1.5091,1.5091,1.4857,1.4876,1.4885,1.4912,1.4924,1.4944,1.4954,1.4968,1.4981,1.5007,1.5023,1.5034,1.5052,1.5074,1.5092,1.5097,1.5104,1.5105,1.511,1.5098,1.5096,1.5095,1.5091,1.5106,1.5107,1.5122,1.5122,1.5122]},{"header":{"parameterUnit":"m.s-1","parameterCategory":1,"la1":30.2991,"la2":30.254,"lo1":-89.0895,"lo2":-89.0444,"dy":0.0017,"dx":0.0017,"nx":28,"ny":28,"refTime":"2025-06-20T03:00:00:Z","depth":0,"parameterNumber":3,"parameterNumberName":"V-component_of_WINDS"},"data":[0,0,0,0,0,0,0,0,0,0,0,0,0,0,0,0,0,0,0,0,0,0,0,0,0,0,0,0,0,0,0,0,0,0,0,0,0,0,0,0,0,0,0,0,0,0,0,0,0,0,0,0,0,0,0,0,0,0,-1.4185,-1.4185,0,-1.4232,-1.4232,-1.4233,-1.4242,-1.4242,-1.4241,-1.4241,-1.4287,-1.4289,-1.429,0,0,0,0,0,0,0,0,0,0,0,0,0,-1.4103,-1.4104,-1.4185,-1.4185,-1.4186,-1.4232,-1.4232,-1.4233,-1.4242,-1.4242,-1.4241,-1.4241,-1.4287,-1.4289,-1.4291,0,0,0,0,0,0,0,0,0,0,0,0,0,-1.4143,-1.4105,-1.4184,-1.4196,-1.4197,-1.4231,-1.4232,-1.4233,-1.4242,-1.4242,-1.4241,-1.4241,-1.4286,-1.4289,-1.4291,-1.4316,0,0,-1.4298,-1.4299,0,0,0,0,0,0,0,0,-1.4141,-1.4146,-1.4194,-1.4195,-1.4197,-1.4231,-1.422,-1.4261,-1.4242,-1.4225,-1.4241,-1.424,-1.4269,-1.4273,-1.4282,-1.4318,-1.432,-1.4298,-1.43,-1.4301,-1.4301,0,0,0,0,0,0,0,-1.4138,-1.4144,-1.4203,-1.4194,-1.4196,-1.4199,-1.4204,-1.4228,-1.4249,-1.4227,-1.4227,-1.4233,-1.427,-1.428,-1.4284,-1.4321,-1.4298,-1.43,-1.4302,-1.4303,-1.4382,-1.4383,0,0,0,0,0,0,-1.4133,-1.4141,-1.4202,-1.4205,-1.4167,-1.4201,-1.4206,-1.422,-1.4249,-1.4253,-1.4233,-1.4233,-1.4276,-1.4281,-1.4285,-1.4318,-1.4301,-1.4303,-1.4304,-1.4381,-1.4382,-1.4383,0,0,0,0,0,0,-1.4131,-1.4138,-1.42,-1.4173,-1.4181,-1.4203,-1.4218,-1.4221,-1.4232,-1.4254,-1.4258,-1.424,-1.4276,-1.4282,-1.4309,-1.432,-1.4304,-1.4306,-1.4381,-1.4382,-1.4383,-1.4383,0,0,0,0,0,0,-1.4129,-1.4138,-1.4147,-1.4173,-1.4183,-1.4222,-1.4219,-1.4223,-1.4236,-1.4237,-1.4262,-1.4265,-1.4276,-1.4305,-1.4311,-1.4323,-1.4308,-1.438,-1.4381,-1.4382,-1.4382,-1.4384,-1.4385,0,0,0,0,0,-1.4126,-1.4144,-1.4148,-1.4155,-1.4195,-1.4223,-1.4228,-1.4241,-1.4237,-1.4247,-1.4262,-1.4265,-1.4318,-1.4308,-1.4315,-1.4327,-1.4379,-1.4381,-1.4382,-1.4381,-1.4383,-1.4385,0,0,0,0,0,0,-1.4117,-1.4148,-1.4152,-1.4179,-1.4199,-1.4225,-1.4237,-1.4243,-1.4263,-1.4262,-1.4276,-1.4282,-1.4309,-1.432,-1.4309,-1.4354,-1.4348,-1.4351,-1.4345,-1.4347,-1.4349,-1.4345,-1.431,0,0,0,0,0,-1.4119,-1.4139,-1.4165,-1.4187,-1.4197,-1.4215,-1.4228,-1.4236,-1.4257,-1.4265,-1.4281,-1.43,-1.4322,-1.4335,-1.4356,-1.4384,-1.439,-1.4396,-1.4398,-1.4399,-1.4401,-1.4419,-1.4422,-1.4388,-1.4388,-1.4388,0,0,-1.4122,-1.4141,-1.4153,-1.4186,-1.4202,-1.4223,-1.4222,-1.4244,-1.426,-1.4268,-1.4295,-1.4308,-1.433,-1.4359,-1.4372,-1.4369,-1.4412,-1.4401,-1.4402,-1.4403,-1.442,-1.4424,-1.4426,-1.4389,-1.4389,-1.4389,0,0,-1.4138,-1.4154,-1.4175,-1.4192,-1.4217,-1.423,-1.4235,-1.4261,-1.427,-1.4298,-1.4305,-1.4324,-1.436,-1.4377,-1.4389,-1.4415,-1.4419,-1.4422,-1.443,-1.4447,-1.4449,-1.4452,-1.4462,-1.4465,-1.4424,-1.4424,-1.4424,0,-1.4138,-1.417,-1.4185,-1.4207,-1.4222,-1.4232,-1.4254,-1.4269,-1.4299,-1.4309,-1.4306,-1.4354,-1.4369,-1.4402,-1.4409,-1.4419,-1.4426,-1.4418,-1.4448,-1.4451,-1.4453,-1.4463,-1.4466,-1.4424,-1.4424,-1.4424,-1.4424,0,-1.417,-1.4192,-1.4206,-1.4237,-1.4253,-1.4275,-1.4293,-1.4308,-1.4316,-1.433,-1.4358,-1.4378,-1.4404,-1.4413,-1.4419,-1.4447,-1.4445,-1.4445,-1.4439,-1.4456,-1.4466,-1.4469,-1.4424,-1.4424,-1.4424,-1.4424,0,0,-1.4179,-1.422,-1.4225,-1.424,-1.427,-1.4287,-1.431,-1.4337,-1.435,-1.4371,-1.4391,-1.4422,-1.4423,-1.4438,-1.4447,-1.4462,-1.4483,-1.4461,-1.4461,-1.4464,-1.4516,-1.4516,-1.452,-1.4486,-1.4487,-1.4487,-1.4514,0,-1.42,-1.4241,-1.4257,-1.4291,-1.4313,-1.4324,-1.4345,-1.4365,-1.4379,-1.44,-1.4415,-1.4437,-1.4436,-1.4446,-1.4461,-1.4477,-1.4493,-1.4475,-1.4505,-1.4506,-1.4499,-1.4525,-1.4524,-1.4548,-1.4518,-1.4519,-1.4519,0,-1.4228,-1.4251,-1.4288,-1.4317,-1.4327,-1.4345,-1.4372,-1.4391,-1.4415,-1.4424,-1.4443,-1.4452,-1.4477,-1.4471,-1.4506,-1.4493,-1.4507,-1.4517,-1.4518,-1.4521,-1.4513,-1.4528,-1.4556,-1.456,-1.4525,-1.4524,-1.4524,0,-1.4232,-1.4273,-1.4301,-1.4313,-1.4347,-1.436,-1.4375,-1.4399,-1.4415,-1.4438,-1.4448,-1.4474,-1.4488,-1.4508,-1.4524,-1.4517,-1.4558,-1.4553,-1.4567,-1.4566,-1.4574,-1.4573,-1.4604,-1.4583,-1.4582,-1.4582,-1.4582,0,-1.4253,-1.4275,-1.4303,-1.432,-1.4347,-1.4365,-1.439,-1.4405,-1.4427,-1.4448,-1.4459,-1.4478,-1.4498,-1.452,-1.4532,-1.4561,-1.4567,-1.4575,-1.4578,-1.4574,-1.4573,-1.4582,-1.4581,-1.4583,-1.4583,-1.4583,-1.4583,0,-1.4261,-1.4281,-1.4313,-1.4344,-1.4352,-1.437,-1.4397,-1.4414,-1.443,-1.4456,-1.4463,-1.4487,-1.4513,-1.4532,-1.4565,-1.4574,-1.4605,-1.4607,-1.4597,-1.4598,-1.4611,-1.461,-1.465,-1.4656,-1.463,-1.463,-1.463,0,-1.4273,-1.4291,-1.4325,-1.434,-1.4355,-1.4379,-1.4396,-1.4415,-1.4432,-1.4463,-1.4477,-1.4505,-1.4528,-1.457,-1.459,-1.4617,-1.462,-1.4633,-1.4624,-1.462,-1.4621,-1.462,-1.4622,-1.4633,-1.4634,-1.4634,-1.4634,0,-1.4291,-1.4301,-1.4325,-1.4354,-1.4374,-1.4397,-1.442,-1.4431,-1.4455,-1.4473,-1.4502,-1.452,-1.4556,-1.4583,-1.4612,-1.4628,-1.4635,-1.4637,-1.4641,-1.4637,-1.4631,-1.4635,-1.46,-1.4635,-1.4635,-1.4635,-1.4635,-1.4635,-1.4302,-1.4319,-1.4347,-1.4374,-1.4394,-1.4416,-1.4434,-1.4453,-1.4477,-1.4508,-1.4518,-1.4548,-1.4574,-1.4614,-1.463,-1.4653,-1.4652,-1.4659,-1.4661,-1.4662,-1.4662,-1.4627,-1.4659,-1.4659,-1.4659,-1.4659,-1.4659,0,-1.4322,-1.4341,-1.4366,-1.4399,-1.4421,-1.4427,-1.4454,-1.4471,-1.4497,-1.4521,-1.4545,-1.4578,-1.4606,-1.463,-1.4658,-1.4673,-1.4677,-1.468,-1.4679,-1.4682,-1.4661,-1.4655,-1.4676,-1.4676,-1.4676,-1.4676,-1.4676,-1.4676,-1.4335,-1.4365,-1.4378,-1.4419,-1.4437,-1.4467,-1.4482,-1.4503,-1.4522,-1.4559,-1.4583,-1.4599,-1.4623,-1.4654,-1.468,-1.4687,-1.4697,-1.4699,-1.4706,-1.4686,-1.4684,-1.4682,-1.4675,-1.4701,-1.4701,-1.4725,-1.4725,-1.4725]}]]